period_start,C,m1,H,J0,J1,J2,J3,J4,J5,JA,JB,JC,JD,JJ,JK,JN,#
2014-02-05 00:00:32,0.16,0.02,0.00,2.67,-0.34,3.07,6.38,30.38,1025.90,2145.03,3720.97,3502.29,3816.91,349.93,350.96,0.11,0000 0000 0000 0000 000000
2014-02-05 00:01:33,0.17,0.02,0.00,2.73,-0.32,3.16,6.26,30.17,1025.90,2145.01,3720.21,3501.74,3816.34,349.28,350.12,0.11,0000 0000 0000 0000 000000
2014-02-05 00:02:33,0.19,0.02,0.00,2.79,-0.30,3.25,6.41,30.38,1025.91,2145.00,3719.46,3501.27,3815.82,350.15,351.34,0.12,0000 0000 0000 0000 000000
2014-02-05 00:03:33,0.20,0.02,0.00,2.87,-0.28,3.33,6.35,30.29,1025.91,2145.00,3718.71,3500.76,3815.30,348.97,350.10,0.12,0000 0000 0000 0000 000000
2014-02-05 00:04:33,0.22,0.02,0.00,2.94,-0.25,3.42,6.32,30.46,1025.95,2145.00,3717.94,3500.25,3814.72,349.56,350.18,0.13,0000 0000 0000 0000 000000
2014-02-05 00:05:33,0.23,0.03,0.00,3.02,-0.22,3.51,6.27,30.50,1025.97,2145.00,3717.23,3499.67,3814.12,349.95,350.69,0.14,0000 0000 0000 0000 000000
2014-02-05 00:06:34,0.24,0.03,0.00,3.09,-0.19,3.61,6.16,30.25,1025.99,2145.00,3716.47,3499.12,3813.46,349.02,349.53,0.14,0000 0000 0000 0000 000000
2014-02-05 00:07:34,0.26,0.03,0.00,3.17,-0.16,3.70,6.35,30.29,1026.00,2145.00,3715.71,3498.45,3812.86,350.21,350.64,0.15,0000 0000 0000 0000 000000
2014-02-05 00:08:34,0.27,0.03,0.00,3.25,-0.13,3.80,6.47,30.38,1026.14,2145.00,3714.89,3497.85,3812.20,350.88,351.25,0.15,0000 0000 0000 0000 000000
2014-02-05 00:09:34,0.28,0.03,0.00,3.33,-0.10,3.91,6.28,30.21,1026.25,2144.97,3714.05,3497.27,3811.47,349.86,350.17,0.16,0000 0000 0000 0000 000000
2014-02-05 00:10:35,0.28,0.04,0.00,3.41,-0.06,4.00,6.45,30.42,1026.35,2144.95,3713.27,3496.60,3810.75,350.18,350.42,0.17,0000 0000 0000 0000 000000
2014-02-05 00:11:35,0.28,0.04,0.00,3.49,-0.02,4.10,6.28,30.21,1026.38,2144.91,3712.53,3496.08,3810.18,349.81,350.37,0.17,0000 0000 0000 0000 000000
2014-02-05 00:12:35,0.27,0.04,0.00,3.57,0.01,4.17,6.31,30.38,1026.37,2144.85,3711.76,3495.45,3809.51,349.93,349.98,0.18,0000 0000 0000 0000 000000
2014-02-05 00:13:36,0.22,0.04,0.00,3.65,0.04,4.26,6.48,30.67,1026.38,2144.62,3711.10,3494.95,3808.86,350.69,350.63,0.18,0000 0000 0000 0000 000000
2014-02-05 00:14:36,0.12,0.04,0.00,3.73,0.09,4.35,6.33,30.25,1026.38,2144.32,3710.33,3494.33,3808.21,350.14,349.98,0.19,0000 0000 0000 0000 000000
2014-02-05 00:15:36,0.11,0.04,0.00,3.80,0.13,4.45,6.23,30.25,1026.38,2144.12,3709.48,3493.62,3807.49,349.21,348.96,0.20,0000 0000 0000 0000 000000
2014-02-05 00:16:37,0.18,0.04,0.00,3.89,0.17,4.51,6.40,30.42,1026.38,2144.05,3708.65,3493.01,3806.67,350.15,349.80,0.20,0000 0000 0000 0000 000000
2014-02-05 00:17:37,0.25,0.04,0.00,3.96,0.22,4.60,6.29,30.21,1026.38,2144.02,3707.86,3492.32,3805.99,349.52,349.07,0.21,0000 0000 0000 0000 000000
2014-02-05 00:18:37,0.31,0.04,0.00,4.04,0.27,4.70,6.26,30.17,1026.38,2144.00,3706.98,3491.57,3805.12,349.95,349.41,0.21,0000 0000 0000 0000 000000
2014-02-05 00:19:38,0.33,0.05,0.00,4.12,0.31,4.77,6.25,30.33,1026.38,2144.00,3706.17,3490.89,3804.35,349.88,349.32,0.22,0000 0000 0000 0000 000000
2014-02-05 00:20:38,0.33,0.05,0.00,4.20,0.36,4.87,6.35,30.46,1026.38,2143.98,3705.37,3490.31,3803.59,349.78,349.19,0.22,0000 0000 0000 0000 000000
2014-02-05 00:21:38,0.27,0.05,0.00,4.28,0.41,4.97,6.41,30.29,1026.39,2143.74,3704.54,3489.64,3802.88,350.13,348.99,0.23,0000 0000 0000 0000 000000
2014-02-05 00:22:38,0.11,0.05,0.00,4.36,0.47,5.05,6.28,30.17,1026.40,2143.39,3703.69,3488.96,3802.12,350.46,349.52,0.24,0000 0000 0000 0000 000000
2014-02-05 00:23:38,0.09,0.05,0.00,4.44,0.52,5.16,6.53,30.46,1026.39,2143.17,3702.81,3488.32,3801.41,350.30,349.25,0.24,0000 0000 0000 0000 000000
2014-02-05 00:24:39,0.17,0.05,0.00,4.51,0.57,5.25,6.43,30.17,1026.42,2143.07,3701.97,3487.61,3800.64,349.79,348.60,0.25,0000 0000 0000 0000 000000
2014-02-05 00:25:39,0.23,0.05,0.00,4.59,0.63,5.32,6.28,29.92,1026.39,2143.00,3701.03,3486.82,3799.81,348.82,347.59,0.25,0000 0000 0000 0000 000000
2014-02-05 00:26:39,0.31,0.06,0.00,4.67,0.68,5.40,6.36,30.25,1026.39,2142.95,3700.07,3486.01,3798.93,350.15,348.81,0.26,0000 0000 0000 0000 000000
2014-02-05 00:27:40,0.34,0.06,0.00,4.75,0.74,5.51,6.34,30.08,1026.41,2142.71,3699.21,3485.30,3798.12,349.54,348.11,0.27,0000 0000 0000 0000 000000
2014-02-05 00:28:40,0.11,0.06,0.00,4.83,0.79,5.58,6.33,29.96,1026.51,2142.31,3698.26,3484.54,3797.26,349.34,347.84,0.27,0000 0000 0000 0000 000000
2014-02-05 00:29:40,0.11,0.06,0.00,4.91,0.85,5.69,6.37,29.92,1026.71,2142.12,3697.33,3483.75,3796.38,350.31,348.78,0.28,0000 0000 0000 0000 000000
2014-02-05 00:30:40,0.24,0.06,0.00,4.99,0.92,5.77,6.33,30.29,1026.85,2142.03,3696.41,3482.95,3795.51,349.80,348.21,0.28,0000 0000 0000 0000 000000
2014-02-05 00:31:41,0.32,0.06,0.00,5.06,0.97,5.87,6.45,30.00,1026.87,2141.99,3695.45,3482.21,3794.66,351.18,349.51,0.29,0000 0000 0000 0000 000000
2014-02-05 00:32:41,0.32,0.06,0.00,5.14,1.04,5.97,6.43,29.75,1026.87,2141.81,3694.48,3481.46,3793.83,350.65,348.88,0.29,0000 0000 0000 0000 000000
2014-02-05 00:33:41,0.14,0.07,0.00,5.22,1.10,6.04,6.45,30.29,1026.87,2141.37,3693.49,3480.66,3792.98,350.54,348.67,0.30,0000 0000 0000 0000 000000
2014-02-05 00:34:41,0.10,0.07,0.00,5.29,1.16,6.15,6.22,30.33,1026.87,2141.14,3692.45,3479.82,3792.09,349.19,347.24,0.31,0000 0000 0000 0000 000000
2014-02-05 00:35:42,0.24,0.07,0.00,5.36,1.22,6.23,6.27,29.96,1026.87,2141.05,3691.33,3478.97,3791.16,350.32,348.28,0.31,0000 0000 0000 0000 000000
2014-02-05 00:36:42,0.36,0.07,0.00,5.45,1.29,6.35,6.36,30.00,1026.89,2141.01,3690.19,3478.16,3790.25,350.31,348.17,0.32,0000 0000 0000 0000 000000
2014-02-05 00:37:42,0.39,0.07,0.00,5.53,1.35,6.45,6.37,29.88,1026.98,2140.95,3689.17,3477.29,3789.40,350.74,348.52,0.32,0000 0000 0000 0000 000000
2014-02-05 00:38:43,0.32,0.07,0.00,5.61,1.42,6.52,6.29,29.75,1027.07,2140.59,3687.95,3476.40,3788.46,350.22,347.63,0.33,0000 0000 0000 0000 000000
2014-02-05 00:39:43,0.17,0.07,0.00,5.68,1.49,6.60,6.22,29.92,1027.11,2140.24,3686.75,3475.53,3787.48,349.91,347.70,0.34,0000 0000 0000 0000 000000
2014-02-05 00:40:43,0.20,0.08,0.00,5.76,1.56,6.70,6.47,30.04,1027.12,2140.08,3685.66,3474.66,3786.54,351.78,349.20,0.34,0000 0000 0000 0000 000000
2014-02-05 00:41:44,0.31,0.08,0.00,5.84,1.63,6.80,6.36,29.83,1027.17,2140.03,3684.61,3473.78,3785.63,350.92,348.38,0.35,0000 0000 0000 0000 000000
2014-02-05 00:42:44,0.35,0.08,0.00,5.89,1.70,6.86,6.23,29.63,1027.23,2139.99,3683.54,3472.99,3784.73,348.12,345.99,0.35,0000 0000 0000 0000 000000
2014-02-05 00:43:44,0.37,0.08,0.00,5.97,1.77,6.98,6.28,29.83,1027.26,2139.91,3682.49,3472.19,3783.82,349.97,347.51,0.36,0000 0000 0000 0000 000000
2014-02-05 00:44:45,0.29,0.08,0.00,6.05,1.84,7.06,6.21,29.50,1027.33,2139.50,3681.45,3471.34,3782.85,348.99,346.26,0.37,0000 0000 0000 0000 000000
2014-02-05 00:45:45,0.13,0.08,0.00,6.12,1.91,7.16,6.48,30.00,1027.35,2139.19,3680.31,3470.39,3781.79,350.26,347.43,0.37,0000 0000 0000 0000 000000
2014-02-05 00:46:45,0.24,0.09,0.00,6.20,1.98,7.26,6.42,29.71,1027.36,2139.07,3679.18,3469.47,3780.78,351.01,348.09,0.38,0000 0000 0000 0000 000000
2014-02-05 00:47:46,0.35,0.09,0.00,6.27,2.06,7.37,6.31,29.33,1027.36,2138.98,3678.05,3468.55,3779.73,350.76,347.74,0.38,0000 0000 0000 0000 000000
2014-02-05 00:48:46,0.39,0.09,0.00,6.35,2.13,7.47,6.26,29.92,1027.36,2138.78,3676.89,3467.61,3778.68,348.98,345.88,0.39,0000 0000 0000 0000 000000
2014-02-05 00:49:46,0.25,0.09,0.00,6.43,2.20,7.57,6.34,29.58,1027.36,2138.34,3675.72,3466.66,3777.66,349.74,346.54,0.39,0000 0000 0000 0000 000000
2014-02-05 00:50:47,0.16,0.09,0.00,6.50,2.28,7.66,6.38,29.25,1027.36,2138.12,3674.60,3465.74,3776.66,350.86,347.56,0.40,0000 0000 0000 0000 000000
2014-02-05 00:51:47,0.29,0.09,0.00,6.56,2.35,7.75,6.14,29.13,1027.37,2138.03,3673.43,3464.79,3775.64,349.53,346.64,0.41,0000 0000 0000 0000 000000
2014-02-05 00:52:47,0.39,0.10,0.00,6.64,2.43,7.88,6.28,29.83,1027.38,2137.83,3672.25,3463.82,3774.61,350.24,346.77,0.41,0000 0000 0000 0000 000000
2014-02-05 00:53:48,0.26,0.10,0.00,6.71,2.51,7.95,6.33,29.83,1027.40,2137.41,3671.05,3462.86,3773.53,350.16,346.57,0.42,0000 0000 0000 0000 000000
2014-02-05 00:54:48,0.19,0.10,0.00,6.79,2.58,8.02,6.27,29.67,1027.51,2137.16,3669.78,3461.81,3772.40,349.74,346.28,0.42,0000 0000 0000 0000 000000
2014-02-05 00:55:48,0.33,0.10,0.00,6.87,2.65,8.10,6.37,29.79,1027.60,2137.04,3668.52,3460.74,3771.21,349.74,346.08,0.43,0000 0000 0000 0000 000000
2014-02-05 00:56:48,0.41,0.10,0.00,6.93,2.73,8.23,6.35,29.46,1027.60,2136.68,3667.24,3459.69,3770.06,350.09,346.57,0.44,0000 0000 0000 0000 000000
2014-02-05 00:57:49,0.21,0.10,0.00,7.00,2.80,8.35,6.52,29.92,1027.70,2136.26,3665.89,3458.53,3768.81,350.72,346.93,0.44,0000 0000 0000 0000 000000
2014-02-05 00:58:49,0.27,0.11,0.00,7.04,2.88,8.39,6.06,29.42,1027.77,2135.84,3664.43,3457.26,3767.44,348.97,345.16,0.45,0000 0000 0000 0000 000000
2014-02-05 00:59:49,0.21,0.11,0.00,7.08,2.96,8.51,6.36,29.63,1027.79,2135.32,3663.00,3456.12,3766.11,349.61,345.62,0.45,0000 0000 0000 0000 000000
2014-02-05 01:00:49,0.23,0.11,0.00,7.13,3.04,8.60,6.29,29.54,1027.84,2135.11,3661.67,3455.06,3764.89,350.26,346.09,0.46,0000 0000 0000 0000 000000
2014-02-05 01:01:50,0.35,0.11,0.00,7.18,3.12,8.67,6.47,29.46,1027.85,2135.01,3660.47,3454.13,3763.88,349.62,345.66,0.47,0000 0000 0000 0000 000000
2014-02-05 01:02:50,0.40,0.11,0.00,7.23,3.20,8.77,6.09,29.21,1027.85,2134.67,3659.27,3453.17,3762.78,348.66,344.64,0.47,0000 0000 0000 0000 000000
2014-02-05 01:03:50,0.15,0.11,0.00,7.29,3.28,8.88,6.08,29.13,1027.85,2134.27,3658.07,3452.24,3761.71,350.63,346.52,0.48,0000 0000 0000 0000 000000
2014-02-05 01:04:50,0.19,0.12,0.00,7.35,3.36,8.96,6.30,29.50,1027.85,2134.10,3656.86,3451.20,3760.66,350.10,345.92,0.48,0000 0000 0000 0000 000000
2014-02-05 01:05:51,0.38,0.12,0.00,7.41,3.44,9.08,6.38,29.46,1027.85,2133.98,3655.62,3450.19,3759.58,350.83,346.57,0.49,0000 0000 0000 0000 000000
2014-02-05 01:06:51,0.35,0.12,0.00,7.48,3.52,9.17,6.38,29.50,1027.85,2133.51,3654.37,3449.15,3758.47,350.85,346.50,0.49,0000 0000 0000 0000 000000
2014-02-05 01:07:51,0.13,0.12,0.00,7.52,3.60,9.23,6.11,28.96,1027.85,2133.18,3653.04,3448.12,3757.34,349.16,344.77,0.50,0000 0000 0000 0000 000000
2014-02-05 01:08:51,0.31,0.12,0.00,7.58,3.68,9.33,6.37,29.08,1027.85,2132.87,3651.63,3446.88,3756.02,350.13,345.66,0.51,0000 0000 0000 0000 000000
2014-02-05 01:09:52,0.27,0.12,0.00,7.64,3.77,9.40,6.26,29.38,1027.85,2132.36,3650.12,3445.63,3754.64,349.78,345.26,0.51,0000 0000 0000 0000 000000
2014-02-05 01:10:52,0.29,0.13,0.00,7.69,3.85,9.49,6.23,28.79,1027.86,2132.07,3648.66,3444.44,3753.32,349.97,345.38,0.52,0000 0000 0000 0000 000000
2014-02-05 01:11:52,0.34,0.13,0.00,7.75,3.93,9.60,6.38,29.63,1027.85,2131.58,3647.33,3443.24,3751.97,350.76,346.08,0.52,0000 0000 0000 0000 000000
2014-02-05 01:12:52,0.16,0.13,0.00,7.82,4.01,9.70,6.43,29.54,1027.85,2131.21,3645.96,3442.01,3750.71,350.08,345.33,0.53,0000 0000 0000 0000 000000
2014-02-05 01:13:53,0.34,0.13,0.00,7.88,4.09,9.78,6.37,29.71,1027.85,2130.98,3644.61,3440.87,3749.42,349.95,345.13,0.54,0000 0000 0000 0000 000000
2014-02-05 01:14:53,0.36,0.13,0.00,7.94,4.17,9.89,6.41,29.29,1027.86,2130.59,3643.33,3439.80,3748.23,350.06,345.25,0.54,0000 0000 0000 0000 000000
2014-02-05 01:15:53,0.19,0.13,0.00,8.00,4.25,9.96,6.25,29.42,1027.89,2130.24,3642.05,3438.71,3747.03,350.15,345.63,0.55,0000 0000 0000 0000 000000
2014-02-05 01:16:53,0.30,0.14,0.00,8.05,4.33,10.05,6.45,29.33,1027.89,2130.06,3640.75,3437.59,3745.81,350.08,344.82,0.55,0000 0000 0000 0000 000000
2014-02-05 01:17:54,0.39,0.14,0.00,8.10,4.41,10.13,6.28,29.42,1027.91,2129.75,3639.54,3436.54,3744.65,349.64,344.57,0.56,0000 0000 0000 0000 000000
2014-02-05 01:18:54,0.22,0.14,0.00,8.15,4.49,10.20,6.23,29.33,1027.88,2129.34,3638.31,3435.53,3743.51,349.49,344.35,0.56,0000 0000 0000 0000 000000
2014-02-05 01:19:54,0.22,0.14,0.00,8.19,4.58,10.30,6.29,29.13,1027.86,2129.12,3637.01,3434.49,3742.36,349.56,344.65,0.57,0000 0000 0000 0000 000000
2014-02-05 01:20:54,0.36,0.14,0.00,8.23,4.66,10.42,6.33,29.29,1027.89,2129.00,3635.72,3433.40,3741.16,350.00,344.26,0.58,0000 0000 0000 0000 000000
2014-02-05 01:21:55,0.41,0.15,0.00,8.27,4.74,10.47,6.34,29.33,1027.99,2128.65,3634.41,3432.40,3739.97,349.93,344.66,0.58,0000 0000 0000 0000 000000
2014-02-05 01:22:55,0.20,0.15,0.00,8.33,4.83,10.57,6.17,29.00,1028.02,2128.28,3633.17,3431.39,3738.89,349.76,344.44,0.59,0000 0000 0000 0000 000000
2014-02-05 01:23:56,0.24,0.15,0.00,8.38,4.91,10.67,6.42,29.38,1028.02,2128.10,3631.89,3430.34,3737.79,350.85,345.44,0.59,0000 0000 0000 0000 000000
2014-02-05 01:24:56,0.39,0.15,0.00,8.43,5.00,10.73,6.43,29.33,1028.10,2127.98,3630.56,3429.30,3736.64,350.47,345.04,0.60,0000 0000 0000 0000 000000
2014-02-05 01:25:56,0.41,0.15,0.00,8.48,5.08,10.85,6.30,28.92,1028.09,2127.57,3629.08,3428.15,3735.42,349.79,344.32,0.61,0000 0000 0000 0000 000000
2014-02-05 01:26:57,0.22,0.15,0.00,8.52,5.16,10.89,6.38,29.17,1028.13,2127.21,3627.48,3426.89,3733.99,350.63,345.10,0.61,0000 0000 0000 0000 000000
2014-02-05 01:27:57,0.40,0.16,0.00,8.57,5.24,11.03,6.18,28.83,1028.17,2127.07,3625.82,3425.58,3732.55,350.00,344.43,0.62,0000 0000 0000 0000 000000
2014-02-05 01:28:57,0.55,0.16,0.00,8.61,5.33,11.08,6.24,29.13,1028.23,2126.81,3624.09,3424.25,3731.08,349.85,344.26,0.62,0000 0000 0000 0000 000000
2014-02-05 01:29:57,0.43,0.16,0.00,8.65,5.41,11.18,6.36,29.25,1028.31,2126.36,3622.28,3422.78,3729.59,350.47,344.18,0.63,0000 0000 0000 0000 000000
2014-02-05 01:30:57,0.39,0.16,0.00,8.69,5.49,11.25,6.33,29.21,1028.33,2126.13,3620.52,3421.43,3728.05,350.67,344.66,0.63,0000 0000 0000 0000 000000
2014-02-05 01:31:58,0.50,0.17,0.00,8.74,5.57,11.33,6.39,29.21,1028.33,2126.04,3618.89,3420.17,3726.68,350.34,344.61,0.64,0000 0000 0000 0000 000000
2014-02-05 01:32:58,0.56,0.17,0.00,8.78,5.66,11.41,6.20,29.08,1028.33,2125.69,3617.34,3418.97,3725.43,349.55,343.50,0.65,0000 0000 0000 0000 000000
2014-02-05 01:33:58,0.24,0.17,0.00,8.82,5.73,11.49,6.21,29.13,1028.33,2125.27,3615.92,3417.89,3724.16,349.90,344.09,0.65,0000 0000 0000 0000 000000
2014-02-05 01:34:58,0.27,0.17,0.00,8.86,5.82,11.55,6.15,28.96,1028.35,2125.09,3614.60,3416.84,3722.99,349.55,343.65,0.66,0000 0000 0000 0000 000000
2014-02-05 01:35:59,0.40,0.18,0.00,8.90,5.90,11.59,6.18,29.25,1028.35,2124.97,3613.31,3415.77,3721.82,348.99,343.37,0.66,0000 0000 0000 0000 000000
2014-02-05 01:36:59,0.41,0.18,0.00,8.92,5.98,11.72,6.23,29.42,1028.35,2124.55,3612.01,3414.72,3720.67,349.21,343.59,0.67,0000 0000 0000 0000 000000
2014-02-05 01:37:59,0.16,0.18,0.00,8.92,6.06,11.82,6.25,29.17,1028.37,2124.20,3610.73,3413.65,3719.48,350.94,345.00,0.68,0000 0000 0000 0000 000000
2014-02-05 01:39:00,0.29,0.18,0.00,8.91,6.14,11.88,6.42,29.13,1028.39,2124.07,3609.57,3412.68,3718.43,350.21,344.29,0.68,0000 0000 0000 0000 000000
2014-02-05 01:40:00,0.38,0.18,0.00,8.91,6.22,11.94,6.28,29.08,1028.38,2123.92,3608.40,3411.74,3717.37,350.82,344.89,0.69,0000 0000 0000 0000 000000
2014-02-05 01:41:00,0.32,0.19,0.00,8.93,6.30,12.05,6.25,29.04,1028.37,2123.45,3607.14,3410.68,3716.24,350.06,344.14,0.69,0000 0000 0000 0000 000000
2014-02-05 01:42:00,0.13,0.19,0.00,8.96,6.38,12.12,6.35,29.13,1028.37,2123.17,3605.86,3409.65,3715.07,350.88,344.88,0.70,0000 0000 0000 0000 000000
2014-02-05 01:43:01,0.32,0.19,0.00,8.98,6.46,12.23,6.28,29.33,1028.37,2123.06,3604.70,3408.71,3714.04,350.15,344.15,0.71,0000 0000 0000 0000 000000
2014-02-05 01:44:01,0.41,0.19,0.00,9.01,6.54,12.34,6.17,29.04,1028.37,2122.90,3603.53,3407.77,3713.02,349.40,343.44,0.71,0000 0000 0000 0000 000000
2014-02-05 01:45:01,0.33,0.19,0.00,9.04,6.63,12.37,6.23,28.96,1028.41,2122.48,3602.34,3406.81,3712.03,350.41,344.34,0.72,0000 0000 0000 0000 000000
2014-02-05 01:46:02,0.10,0.19,0.00,9.09,6.71,12.43,6.32,29.29,1028.41,2122.17,3601.18,3405.83,3711.02,350.16,344.04,0.72,0000 0000 0000 0000 000000
2014-02-05 01:47:02,0.28,0.20,0.00,9.13,6.79,12.51,6.26,29.13,1028.45,2122.05,3599.98,3404.90,3709.96,350.04,343.87,0.73,0000 0000 0000 0000 000000
2014-02-05 01:48:02,0.39,0.20,0.00,9.20,6.86,12.62,6.36,29.38,1028.44,2121.75,3598.80,3403.93,3708.87,349.94,343.69,0.73,0000 0000 0000 0000 000000
2014-02-05 01:49:02,0.15,0.20,0.00,9.26,6.95,12.67,6.37,29.00,1028.46,2121.31,3597.62,3402.97,3707.82,350.25,343.50,0.74,0000 0000 0000 0000 000000
2014-02-05 01:50:02,0.19,0.20,0.00,9.31,7.02,12.76,6.46,29.13,1028.55,2121.11,3596.47,3402.00,3706.75,350.90,344.23,0.75,0000 0000 0000 0000 000000
2014-02-05 01:51:03,0.35,0.20,0.00,9.37,7.10,12.81,6.23,28.92,1028.65,2121.03,3595.36,3401.06,3705.70,349.45,343.04,0.75,0000 0000 0000 0000 000000
2014-02-05 01:52:03,0.40,0.20,0.00,9.42,7.18,12.89,6.23,29.04,1028.71,2120.77,3594.26,3400.16,3704.69,349.67,343.25,0.76,0000 0000 0000 0000 000000
2014-02-05 01:53:03,0.17,0.20,0.00,9.47,7.25,13.01,6.29,29.21,1028.75,2120.31,3593.10,3399.22,3703.67,349.59,343.16,0.76,0000 0000 0000 0000 000000
2014-02-05 01:54:03,0.14,0.21,0.00,9.52,7.33,13.11,6.44,28.83,1028.80,2120.11,3591.91,3398.24,3702.59,350.91,344.74,0.77,0000 0000 0000 0000 000000
2014-02-05 01:55:03,0.35,0.21,0.00,9.58,7.40,13.18,6.44,29.00,1028.78,2120.01,3590.74,3397.32,3701.53,350.41,343.22,0.78,0000 0000 0000 0000 000000
2014-02-05 01:56:04,0.39,0.21,0.00,9.65,7.48,13.23,6.25,29.00,1028.82,2119.67,3589.53,3396.32,3700.42,349.39,342.85,0.78,0000 0000 0000 0000 000000
2014-02-05 01:57:04,0.19,0.21,0.00,9.70,7.56,13.31,6.35,29.13,1028.82,2119.28,3588.41,3395.38,3699.41,350.88,344.14,0.79,0000 0000 0000 0000 000000
2014-02-05 01:58:04,0.16,0.21,0.00,9.74,7.63,13.40,6.39,29.13,1028.82,2119.10,3587.38,3394.46,3698.38,351.06,343.99,0.79,0000 0000 0000 0000 000000
2014-02-05 01:59:04,0.33,0.21,0.00,9.81,7.71,13.47,6.33,28.67,1028.82,2119.01,3586.26,3393.51,3697.28,349.50,342.59,0.80,0000 0000 0000 0000 000000
2014-02-05 02:00:04,0.42,0.22,0.00,9.88,7.79,13.54,6.21,28.96,1028.82,2118.65,3585.13,3392.58,3696.28,349.86,342.91,0.80,0000 0000 0000 0000 000000
2014-02-05 02:01:05,0.10,0.22,0.00,9.94,7.86,13.61,6.29,28.88,1028.82,2118.26,3584.06,3391.72,3695.26,350.01,343.00,0.81,0000 0000 0000 0000 000000
2014-02-05 02:02:05,0.17,0.22,0.00,10.01,7.94,13.67,6.27,28.67,1028.82,2118.09,3583.08,3390.93,3694.20,350.14,343.05,0.82,0000 0000 0000 0000 000000
2014-02-05 02:03:05,0.32,0.22,0.00,10.06,8.01,13.73,6.37,28.96,1028.82,2118.00,3581.98,3390.05,3693.14,350.42,343.07,0.82,0000 0000 0000 0000 000000
2014-02-05 02:04:06,0.40,0.22,0.00,10.11,8.09,13.82,6.27,28.92,1028.83,2117.61,3580.85,3389.06,3692.10,350.04,342.81,0.83,0000 0000 0000 0000 000000
2014-02-05 02:05:06,0.08,0.22,0.00,10.16,8.17,13.89,6.32,29.00,1028.83,2117.25,3579.72,3388.19,3691.12,350.45,343.16,0.83,0000 0000 0000 0000 000000
2014-02-05 02:06:06,0.18,0.22,0.00,10.22,8.24,13.96,6.19,28.79,1028.85,2117.08,3578.59,3387.32,3690.09,349.60,342.27,0.84,0000 0000 0000 0000 000000
2014-02-05 02:07:06,0.33,0.23,0.00,10.28,8.32,14.02,6.10,28.92,1028.91,2116.95,3577.45,3386.39,3689.11,349.91,342.64,0.85,0000 0000 0000 0000 000000
2014-02-05 02:08:07,0.38,0.23,0.00,10.33,8.39,14.08,6.08,28.54,1028.97,2116.49,3576.33,3385.45,3688.07,349.44,342.01,0.85,0000 0000 0000 0000 000000
2014-02-05 02:09:07,0.05,0.23,0.00,10.37,8.46,14.15,6.23,28.71,1029.09,2116.17,3575.21,3384.54,3687.08,349.74,342.30,0.86,0000 0000 0000 0000 000000
2014-02-05 02:10:07,0.24,0.23,0.00,10.42,8.54,14.19,6.33,28.71,1029.09,2116.06,3574.01,3383.55,3686.04,350.52,342.99,0.86,0000 0000 0000 0000 000000
2014-02-05 02:11:07,0.41,0.23,0.00,10.47,8.61,14.26,6.20,28.96,1029.11,2116.00,3572.74,3382.57,3685.02,349.70,341.64,0.87,0000 0000 0000 0000 000000
2014-02-05 02:12:08,0.45,0.24,0.00,10.54,8.68,14.30,6.29,28.96,1029.10,2115.57,3571.50,3381.62,3683.91,349.87,342.37,0.87,0000 0000 0000 0000 000000
2014-02-05 02:13:08,0.09,0.24,0.00,10.61,8.75,14.38,6.29,29.00,1029.08,2115.22,3570.28,3380.64,3682.82,349.75,342.02,0.88,0000 0000 0000 0000 000000
2014-02-05 02:14:08,0.25,0.24,0.00,10.66,8.83,14.46,6.18,28.79,1029.10,2115.07,3569.06,3379.69,3681.74,349.70,342.16,0.89,0000 0000 0000 0000 000000
2014-02-05 02:15:08,0.38,0.24,0.00,10.71,8.90,14.53,6.27,28.58,1029.06,2114.93,3567.86,3378.72,3680.66,349.97,342.30,0.89,0000 0000 0000 0000 000000
2014-02-05 02:16:09,0.38,0.24,0.00,10.77,8.97,14.57,6.25,28.96,1029.04,2114.49,3566.64,3377.77,3679.61,349.53,341.37,0.90,0000 0000 0000 0000 000000
2014-02-05 02:17:09,0.10,0.24,0.00,10.82,9.04,14.63,6.27,28.58,1029.10,2114.18,3565.54,3376.84,3678.57,349.99,342.01,0.90,0000 0000 0000 0000 000000
2014-02-05 02:18:09,0.24,0.24,0.00,10.87,9.11,14.71,6.23,28.71,1029.17,2114.05,3564.40,3375.91,3677.47,350.27,342.52,0.91,0000 0000 0000 0000 000000
2014-02-05 02:19:10,0.38,0.25,0.00,10.93,9.18,14.75,6.10,28.58,1029.27,2113.78,3563.21,3374.98,3676.49,349.09,341.05,0.92,0000 0000 0000 0000 000000
2014-02-05 02:20:10,0.24,0.25,0.00,11.00,9.25,14.81,6.19,28.63,1029.29,2113.41,3562.06,3374.10,3675.56,350.31,342.16,0.92,0000 0000 0000 0000 000000
2014-02-05 02:21:10,0.17,0.25,0.00,11.05,9.32,14.88,6.03,28.63,1029.30,2113.16,3560.91,3373.17,3674.65,349.32,341.11,0.93,0000 0000 0000 0000 000000
2014-02-05 02:22:10,0.27,0.25,0.00,11.09,9.40,14.94,6.20,28.75,1029.30,2113.06,3559.79,3372.33,3673.75,350.20,341.96,0.93,0000 0000 0000 0000 000000
2014-02-05 02:23:11,0.34,0.25,0.00,11.13,9.47,15.01,6.27,28.79,1029.30,2112.99,3558.65,3371.47,3672.89,349.81,341.51,0.94,0000 0000 0000 0000 000000
2014-02-05 02:24:11,0.36,0.25,0.00,11.17,9.54,15.07,6.13,28.75,1029.31,2112.70,3557.46,3370.59,3672.05,349.13,340.81,0.95,0000 0000 0000 0000 000000
2014-02-05 02:25:11,0.19,0.26,0.00,11.23,9.61,15.15,6.34,28.88,1029.31,2112.31,3556.27,3369.73,3671.10,349.73,341.33,0.95,0000 0000 0000 0000 000000
2014-02-05 02:26:11,0.18,0.26,0.00,11.29,9.67,15.20,6.21,28.50,1029.31,2112.11,3555.13,3368.86,3670.19,350.05,341.57,0.96,0000 0000 0000 0000 000000
2014-02-05 02:27:11,0.30,0.26,0.00,11.33,9.75,15.26,6.22,28.88,1029.31,2112.02,3554.09,3368.01,3669.29,349.28,340.76,0.96,0000 0000 0000 0000 000000
2014-02-05 02:28:11,0.33,0.26,0.00,11.38,9.82,15.31,6.18,28.58,1029.31,2111.84,3553.04,3367.21,3668.35,349.73,341.14,0.97,0000 0000 0000 0000 000000
2014-02-05 02:29:12,0.23,0.26,0.00,11.44,9.89,15.38,6.22,28.46,1029.31,2111.39,3552.10,3366.35,3667.40,350.14,341.47,0.97,0000 0000 0000 0000 000000
2014-02-05 02:30:12,0.08,0.26,0.00,11.48,9.96,15.45,6.19,28.67,1029.31,2111.15,3551.04,3365.44,3666.43,349.81,341.10,0.98,0000 0000 0000 0000 000000
2014-02-05 02:31:12,0.29,0.26,0.00,11.51,10.02,15.49,6.21,28.71,1029.31,2111.05,3549.98,3364.58,3665.48,349.71,341.17,0.99,0000 0000 0000 0000 000000
2014-02-05 02:32:12,0.37,0.27,0.00,11.55,10.09,15.55,6.23,28.63,1029.31,2111.02,3549.00,3363.75,3664.57,349.99,341.25,0.99,0000 0000 0000 0000 000000
2014-02-05 02:33:13,0.38,0.27,0.00,11.59,10.16,15.60,6.34,28.83,1029.31,2110.90,3547.99,3362.95,3663.70,350.17,340.88,1.00,0000 0000 0000 0000 000000
2014-02-05 02:34:13,0.31,0.27,0.00,11.64,10.23,15.65,6.32,28.54,1029.31,2110.42,3546.15,3361.70,3662.41,349.75,340.94,1.00,0000 0000 0000 0000 000000
2014-02-05 02:35:13,0.40,0.27,0.00,11.69,10.30,15.71,6.22,28.54,1029.31,2110.16,3540.14,3358.61,3659.10,350.52,341.54,1.01,0000 0000 0000 0000 000000
2014-02-05 02:36:14,1.94,0.28,0.00,11.74,10.37,15.77,6.20,28.79,1029.31,2110.05,3528.13,3352.75,3652.92,349.60,340.58,1.02,0000 0000 0000 0000 000000
2014-02-05 02:37:14,3.49,0.30,0.00,11.79,10.43,15.82,6.23,28.58,1029.32,2109.85,3518.69,3348.05,3648.02,351.09,341.97,1.02,0000 0000 0000 0000 000000
2014-02-05 02:38:14,2.44,0.32,0.00,11.82,10.50,15.88,6.26,28.42,1029.32,2109.38,3514.24,3345.66,3645.53,350.44,341.44,1.03,0000 0000 0000 0000 000000
2014-02-05 02:39:14,0.89,0.32,0.00,11.87,10.57,15.96,6.21,28.42,1029.32,2109.15,3511.41,3344.08,3643.87,349.59,340.43,1.03,0000 0000 0000 0000 000000